"Pseudo-MPEC" for 2016-038C = NORAD 41590 = Falcon 9-026 Stage 2

Created 2017 Nov 18 13:31:31 UT using Find_Orb

Astrometry:
2016-038C    tC2017 07 25.22445 22 56 32.45 +25 06 42.1         x12.0 RqD0557Y00
2016-038C    tC2017 07 25.22543 22 56 48.59 +25 05 37.0         x12.4 RqD0557Y00
2016-038C    tC2017 07 25.22648 22 57 05.54 +25 04 29.0         x12.1 RqD0557Y00
2016-038C     C2017 07 26.92759 23 05 54.10 +17 58 14.6         x17.1   D0557L71
2016-038C     C2017 07 26.93060 23 06 50.27 +17 57 11.7         x17.6   D0557L71
2016-038C     C2017 07 26.93122 23 07 01.32 +17 56 59.4         x17.2   D0557L71
2016-038C     C2017 07 26.94047 23 09 41.55 +17 53 31.9         x14.9   D0557L71
2016-038C     C2017 07 26.94109 23 09 52.13 +17 53 15.7         x17.6   D0557L71
2016-038C     C2017 07 26.94942 23 12 12.05 +17 49 43.5         x17.0   D0557L71
2016-038C    tC2017 08 01.17247 00 01 44.64 +21 45 01.0          12.3 RqD0557Y00
2016-038C    tC2017 08 01.17347 00 01 57.47 +21 44 18.3          12.8 RqD0557Y00
2016-038C    tC2017 08 01.17454 00 02 10.97 +21 43 33.0          12.5 RqD0557Y00
2016-038C    tC2017 08 07.29628 00 48 50.40 +18 05 32.2          12.3 RqD0557Y00
2016-038C    tC2017 08 07.29729 00 49 05.49 +18 04 02.7          13.0 RqD0557Y00
2016-038C    tC2017 08 07.29828 00 49 20.23 +18 02 36.1          13.0 RqD0557Y00
2016-038C    tC2017 08 07.30674 00 51 28.88 +17 49 48.8          12.7 RqD0557Y00
2016-038C    tC2017 08 07.30775 00 51 44.32 +17 48 13.5          12.6 RqD0557Y00
2016-038C    tC2017 08 07.30874 00 51 59.70 +17 46 40.7          13.0 RqD0557Y00
2016-038C    tC2017 08 30.12996 00 40 58.36 +17 52 18.3          12.6 RqD0557Y00
2016-038C    tC2017 08 30.13094 00 41 10.87 +17 51 14.9          12.4 RqD0557Y00
2016-038C    tC2017 08 30.13191 00 41 23.29 +17 50 11.7          11.9 RqD0557Y00
2016-038C    tC2017 08 30.27035 01 14 05.38 +14 25 16.9          11.5 RqD0557Y00
2016-038C    tC2017 08 30.27165 01 14 28.10 +14 22 41.0          11.6 RqD0557Y00
2016-038C    tC2017 08 30.27328 01 14 57.02 +14 19 20.7          11.6 RqD0557Y00
2016-038C    tC2017 09 03.12007 23 12 50.66 +23 38 49.5          11.5 RqD0557Y00
2016-038C    tC2017 09 03.12107 23 13 07.35 +23 37 13.4          11.5 RqD0557Y00
2016-038C    tC2017 09 03.12205 23 13 23.98 +23 35 37.4          11.7 RqD0557Y00
2016-038C    tC2017 09 03.16396 23 24 15.75 +22 28 48.4          11.9 RqD0557Y00
2016-038C    tC2017 09 03.16494 23 24 30.09 +22 27 14.8          12.0 RqD0557Y00
2016-038C    tC2017 09 03.16593 23 24 44.42 +22 25 41.1          11.6 RqD0557Y00
2016-038C    tC2017 09 05.20933 01 21 58.55 +13 57 54.0          11.8 RqD0557Y00
2016-038C    tC2017 09 05.21038 01 22 17.06 +13 55 56.3          11.6 RqD0557Y00
2016-038C    tC2017 09 05.21139 01 22 34.96 +13 54 01.8          11.8 RqD0557Y00
2016-038C    tC2017 09 14.07875 22 36 41.45 +26 00 31.2          12.0 RqD0557Y00
2016-038C    tC2017 09 14.07982 22 37 12.84 +25 57 38.8          12.3 RqD0557Y00
2016-038C    tC2017 09 14.08087 22 37 43.55 +25 54 49.6          11.8 RqD0557Y00
2016-038C    tC2017 09 16.16751 00 56 30.43 +15 05 30.0          11.3 RqD0557Y00
2016-038C    tC2017 09 16.16851 00 56 42.97 +15 03 57.1          11.5 RqD0557Y00
2016-038C    tC2017 09 16.16949 00 56 55.36 +15 02 24.9          11.7 RqD0557Y00
2016-038C    tC2017 09 22.16232 01 16 49.19 +13 00 29.0          11.9 RqD0559Y00
2016-038C    tC2017 09 22.16336 01 17 04.66 +12 58 35.4          11.9 RqD0559Y00
2016-038C    tC2017 09 22.16433 01 17 19.05 +12 56 49.9          11.7 RqD0559Y00
2016-038C    tC2017 10 02.10831 00 03 00.86 +18 22 49.8          12.0 Rq     Y00
2016-038C    tC2017 10 02.10939 00 03 13.25 +18 21 05.7          12.2 Rq     Y00
2016-038C    tC2017 10 02.11041 00 03 25.00 +18 19 26.0          12.4 Rq     Y00
2016-038C    tC2017 10 07.02288 22 59 30.69 +24 05 53.0          12.0 Rq     Y00
2016-038C    tC2017 10 07.02387 22 59 55.84 +24 03 04.8          12.2 Rq     Y00
2016-038C    tC2017 10 07.02485 23 00 20.56 +24 00 20.1          12.0 Rq     Y00
2016-038C    tC2017 10 13.07531 23 42 58.95 +19 29 38.9          12.0 Rq     Y00
2016-038C    tC2017 10 13.07698 23 43 22.73 +19 26 20.6          12.2 Rq     Y00
2016-038C    tC2017 10 13.07890 23 43 50.24 +19 22 31.9          11.8 Rq     Y00
2016-038C    tC2017 10 14.06953 00 33 28.62 +15 20 05.4          12.0 Rq     Y00
2016-038C    tC2017 10 14.07053 00 33 39.22 +15 18 32.6          12.6 Rq     Y00
2016-038C    tC2017 10 14.07153 00 33 49.83 +15 16 59.6          12.6 Rq     Y00
2016-038C    tC2017 10 14.08119 00 35 31.77 +15 01 56.3          12.0 Rq     Y00
2016-038C    tC2017 10 14.08218 00 35 42.12 +15 00 23.9          11.7 Rq     Y00
2016-038C    tC2017 10 14.08317 00 35 52.61 +14 58 49.8          11.9 Rq     Y00
2016-038C    tC2017 10 20.07432 00 52 37.29 +13 05 47.8          11.8 Rq     Y00
2016-038C    tC2017 10 20.07534 00 52 48.29 +13 04 07.8          11.9 Rq     Y00
2016-038C    tC2017 10 20.07632 00 52 58.87 +13 02 31.6          11.4 Rq     Y00
2016-038C    tC2017 11 13.05629 02 19 38.65 +03 09 18.7          11.4 Rq     Y00
2016-038C    tC2017 11 13.05768 02 20 13.94 +03 05 00.9          11.5 Rq     Y00
2016-038C    tC2017 11 13.05873 02 20 41.21 +03 01 41.5          12.0 Rq     Y00
2016-038C    tC2017 11 18.01198 01 25 05.98 +07 58 09.5          13.1 Rq     Y00
2016-038C    tC2017 11 18.01303 01 25 18.79 +07 56 10.2          12.6 Rq     Y00
2016-038C    tC2017 11 18.01410 01 25 31.60 +07 54 10.7          12.7 Rq     Y00

Station data:
(L71) Vedrus Observatory, Azovskaya  (N44.791475 E38.583900)  Russia.
(Y00) SONEAR Observatory, Oliveira  (S20.715080 W44.784960)  Brazil.
   Observers C. Jacques, E. Pimentel, J. Barros. Measurer C. Jacques. 0.28-m
   f/2.2 astrograph + CCD.

Orbital elements:  2016-038C = NORAD 41590 = Falcon 9-026 Stage 2
   Perigee 2017 Nov 1.330101 +/- 1.43e-5 TT =  7:55:20 (JD 2458058.830101)
Epoch 2017 Nov  1.0 TT; AMR 0.011138 +/- 0.00182 m2/kg       Gray
M 220.07556 +/- 0.006               (J2000 equator)
n 423.88374905 +/- 4.68e-5          Peri.  331.80283 +/- 0.0011
a 37882.5316 +/- 0.00279            Node   216.33456 +/- 0.00019
e   0.8141591 +/- 7.58e-6           Incl.   22.60037 +/- 0.00042
P1222.95m/0.849d           H 28.3   G  0.15   U  6.1  
q 7040.12152 +/- 0.287    Q 68724.9418 +/- 0.286
57 of 66 observations 2017 Aug. 1-Nov. 18; mean residual 7".293
Residuals in arcseconds: 
170725 Y00(21.0- 5.71+)   170830 Y00 11.7+ 6.45-    171002 Y00 .638- 3.05+    
170725 Y00(16.6- 3.91+)   170830 Y00 15.4+ 8.25-    171007 Y00 10.7+ 4.78-    
170725 Y00(15.8- 3.80+)   170903 Y00 10.3- 3.41+    171007 Y00 11.1+ 5.42-    
170726 L71( 126- 14.5+)   170903 Y00 13.1- 4.58+    171007 Y00 11.5+ 5.06-    
170726 L71(86.0- 12.2+)   170903 Y00 11.1- 3.81+    171013 Y00 1.89- 1.01+    
170726 L71(84.0- 12.8+)   170903 Y00 10.6- 3.06+    171013 Y00 4.17- 1.77+    
170726 L71(81.5- 13.5+)   170903 Y00 9.02- 2.27+    171013 Y00 2.51- 1.43+    
170726 L71(81.0- 12.3+)   170903 Y00 9.05- 2.30+    171014 Y00 .092+ .959+    
170726 L71(77.3- 14.2+)   170905 Y00 15.6+ 7.69-    171014 Y00 .458+ .780+    
170801 Y00 12.2- 3.81+    170905 Y00 15.2+ 7.07-    171014 Y00 1.04+ .538+    
170801 Y00 9.39- 3.23+    170905 Y00 15.0+ 7.13-    171014 Y00 1.22+ .507+    
170801 Y00 9.23- 3.22+    170914 Y00 .578+ 1.00-    171014 Y00 .013- 1.43+    
170807 Y00 1.32+ .866+    170914 Y00 .821- .601-    171014 Y00 .796+ .804+    
170807 Y00 1.95+ .337+    170914 Y00 .086+ 1.18-    171020 Y00 3.39+ .414-    
170807 Y00 1.15+ 1.38+    170916 Y00 3.69+ 2.33-    171020 Y00 3.57+ .722-    
170807 Y00 3.32+ 1.13+    170916 Y00 3.33+ 1.97-    171020 Y00 3.79+ .941-    
170807 Y00 1.05+ .388-    170916 Y00 4.09+ 2.45-    171113 Y00 19.0+ 8.95-    
170807 Y00 1.53+ .792-    170922 Y00 13.4+ 6.76-    171113 Y00 17.1+ 7.75-    
170830 Y00 6.44- .133+    170922 Y00 14.5+ 7.45-    171113 Y00 21.2+ 9.91-    
170830 Y00 6.80- .318+    170922 Y00 14.3+ 7.19-    171118 Y00 13.0- 5.34+    
170830 Y00 6.59- .291+    171002 Y00 1.54+ 2.27+    171118 Y00 11.4- 4.25+    
170830 Y00 11.5+ 7.66-    171002 Y00 .043- 3.36+    171118 Y00 13.9- 5.53+    

Ephemerides (geocentric):
Date (UTC) HH   RA              Dec         delta   r     elong  mag  '/hr    PA   " sig PA
---- -- -- --  ------------   ------------  ------ ------ -----  --- ------ ------ ---- ---
2017 11 18 00  01 19 38.581   +05 38 20.80   65554 .98892 144.8 12.9  206.2 111.8   2.2 124
2017 11 18 01  01 32 59.731   +04 17 44.66   62652 .98891 147.1 12.7  225.7 112.1   2.4 123
2017 11 18 02  01 47 50.740   +02 46 45.58   58701 .98889 149.4 12.5  257.1 112.4   2.8 121
2017 11 18 03  02 05 09.200   +00 59 34.70   53573 .98885 151.7 12.3  308.7 112.5   3.5 119
2017 11 18 04  02 26 41.370   -01 14 19.67   47067 .98881 153.8 11.9  400.0 112.5   4.8 117
2017 11 18 05  02 56 23.252   -04 17 12.85   38844 .98876 154.8 11.5  587.2 112.1   7.6 115
2017 11 18 06  03 46 05.106   -09 08 38.57   28280 .98868 151.5 10.9   1108 110.7  15.8 112
2017 11 18 07  06 07 19.115   -19 24 17.27   14162 .98856 126.1 10.1   4417 101.7  70.6 102
2017 11 18 08  18 17 44.937   +19 54 19.53   12153 .98845  56.0 13??   6000  79.2   105  79
2017 11 18 09  21 25 46.407   +21 31 58.69   26760 .98850  95.0 12.5   1237  96.7  22.2  98
2017 11 18 10  22 26 29.122   +19 09 40.06   37684 .98855 107.9 12.8  624.0 102.1  11.1 104
2017 11 18 11  23 00 59.101   +17 12 13.28   46153 .98860 115.4 13.0  416.0 104.8   7.2 109
2017 11 18 12  23 25 10.428   +15 34 51.47   52849 .98864 120.6 13.1  317.3 106.5   5.3 112
2017 11 18 13  23 44 07.214   +14 10 26.28   58134 .98867 124.7 13.2  262.2 107.7   4.2 114
2017 11 18 14  00 00 02.128   +12 54 19.47   62221 .98870 128.1 13.3  228.9 108.6   3.4 117
2017 11 18 15  00 14 05.019   +11 43 27.30   65247 .98872 131.0 13.3  208.2 109.4   3.0 119
2017 11 18 16  00 26 58.089   +10 35 38.23   67294 .98874 133.7 13.3  195.7 110.0   2.6 121
2017 11 18 17  00 39 10.087   +09 29 08.07   68417 .98875 136.2 13.2  189.3 110.5   2.4 122
